Regional Weather Roundup
Issued by NWS

Home | Current Version | Previous Version | Text Only | Print | Product List | Glossary Off
Versions: 1 2 3 4 5 6 7 8 9 10 11 12 13 14 15 16 17 18 19 20 21 22 23 24 25 26 27 28 29 30 31 32 33 34 35 36 37 38 39 40 41 42 43 44 45 46 47 48 49 50

000
ASUS43 KDMX 102207
RWRIA

WEATHER ROUNDUP FOR IOWA
NATIONAL WEATHER SERVICE DES MOINES IA
500 PM CDT THU JUL 10 2014

NOTE: "FAIR" INDICATES FEW OR NO CLOUDS BELOW 12,000 FEET WITH NO
SIGNIFICANT WEATHER AND/OR OBSTRUCTIONS TO VISIBILITY.

* - THESE STATIONS ARE NOT NWS STATIONS...THUS NOT UNDER NWS
QUALITY CONTROL.  THEY ALSO DO NOT REPORT WEATHER SUCH
AS PRECIPITATION OR FOG.

IAZ001>003-012>014-020>022-031>034-043>046-102300-
   NORTHWEST IOWA

CITY           SKY/WX    TMP DP  RH WIND       PRES   REMARKS
CARROLL *      SUNNY     81  63  54 S14G25    30.01F HX  82
CHEROKEE *     PTSUNNY   81  66  61 S14       29.99R HX  83
DENISON *      SUNNY     81  66  61 S17G24    29.98F HX  83
LE MARS *      MOSUNNY   82  66  57 S17G24    29.96S HX  85
ORANGE CITY *  SUNNY     82  63  51 S13G20    29.97F HX  83
SHELDON *      SUNNY     81  64  57 S15G22    29.96F HX  82
SIOUX CITY     PTSUNNY   84  66  54 S18G25    29.95F HX  86
SPENCER        PTSUNNY   80  64  58 S17G24    30.00R HX  82
STORM LAKE *   SUNNY     81  66  61 S16       30.01S HX  83
$$

IAZ055>058-069>071-079>083-090>094-102300-
   SOUTHWEST IOWA

CITY           SKY/WX    TMP DP  RH WIND       PRES   REMARKS
ATLANTIC *     SUNNY     82  64  54 S14       30.01S HX  84
AUDUBON *      SUNNY     84  66  54 S14G21    30.03F HX  86
CLARINDA *     SUNNY     82  68  61 S10G20    30.03R HX  85
COUNCIL BLFS * MOSUNNY   81  68  65 S20G26    29.99R HX  83
CRESTON *      SUNNY     79  61  53 SE14G22   30.05F HX  80
HARLAN  *      SUNNY     82  68  61 SE15G23   30.03F HX  85
LAMONI         SUNNY     80  59  48 SE12      30.06F HX  81
RED OAK *      SUNNY     82  66  57 S15       30.01S HX  85
SHENANDOAH *   MOSUNNY   82  68  61 SE16      30.01R HX  85
$$

IAZ047>049-059>061-072>074-084-102300-
   CENTRAL IOWA

CITY           SKY/WX    TMP DP  RH WIND       PRES   REMARKS
AMES           SUNNY     81  58  45 S15       30.05R HX  81
ANKENY *       SUNNY     81  61  50 SE14G21   30.04S HX  81
CHARITON *     SUNNY     81  59  47 SE10G17   30.06F HX  81
DES MOINES     MOSUNNY   83  57  41 SE15      30.05S HX  82
GRINNELL*      SUNNY     81  57  44 SE14      30.07F HX  81
KNOXVILLE *    SUNNY     81  59  47 SE12G17   30.05F HX  81
MARSHALLTOWN   SUNNY     80  59  48 S12G23    30.05F HX  81
PELLA *        SUNNY     82  57  42 SE12G18   30.07F HX  82
PERRY *          N/A     82  59  44 S14       30.04S HX  82
$$

IAZ004>006-015-016-023>025-035-036-102300-
   NORTH CENTRAL IOWA

CITY           SKY/WX    TMP DP  RH WIND       PRES   REMARKS
ALGONA *       MOSUNNY   81  61  50 S15G23    30.02S HX  81
CLARION *      SUNNY     82  59  44 S15G24    30.04S HX  82
ESTHERVILLE    PTSUNNY   80  61  52 S18G26    30.00S HX  81
FORT DODGE *   MOSUNNY   81  61  50 S10G21    30.04S HX  81
MASON CITY     MOSUNNY   83  58  42 S13       30.06S HX  83
FOREST CITY *    N/A     81  59  47 S15G21    30.03S HX  81
IOWA FALLS *     N/A     81  59  47 SE14      30.06S HX  81
$$

IAZ007>011-017>019-026>030-037>042-050>054-066-102300-
   NORTHEAST IOWA

CITY           SKY/WX    TMP DP  RH WIND       PRES   REMARKS
CEDAR RAPIDS   SUNNY     80  58  46 S12G18    30.08F HX  80
CHARLES CITY * MOSUNNY   79  59  50 S13G20    30.06F HX  80
CLINTON *      SUNNY     81  57  44 S8        30.14F HX  81
DECORAH *        N/A    N/A N/A N/A MISG        N/A
DUBUQUE        SUNNY     78  61  55 S9        30.11F HX  80
MONTICELLO *   MOSUNNY   81  61  50 S10       30.09F HX  81
OELWEIN *      MOSUNNY   79  61  53 S13       30.09S HX  80
WATERLOO       MOSUNNY   80  57  45 S15       30.06S HX  80
$$

IAZ064-065-067-068-078-102300-
   EAST CENTRAL IOWA

CITY           SKY/WX    TMP DP  RH WIND       PRES   REMARKS
DAVENPORT      PTSUNNY   79  58  48 S8        30.11F HX  80
IOWA CITY      SUNNY     80  60  50 S10       30.10F HX  81
MT. PLEASANT * SUNNY     82  54  36 S8        30.10F HX  81
MUSCATINE *    SUNNY     81  57  44 S9G15     30.10F HX  81
QUAD CITIES    SUNNY     81  58  45 S7        30.10F HX  81
$$

IAZ062-063-075>077-085>089-095>099-102300-
   SOUTHEAST IOWA

CITY           SKY/WX    TMP DP  RH WIND       PRES   REMARKS
BURLINGTON     SUNNY     81  57  43 S9        30.10F HX  81
FAIRFIELD *    SUNNY     81  59  47 SE12G20   30.09F HX  81
FORT MADISON * SUNNY     82  55  39 S7        30.11F HX  82
KEOKUK *       MOSUNNY   81  55  41 SE9       30.09F HX  80
OSKALOOSA *      N/A     81  58  45 S13       30.08S HX  81
CENTERVILLE *    N/A     77  59  53 SE10      30.09F
OTTUMWA        SUNNY     79  59  50 SE13      30.07F HX  80
WASHINGTON *   MOSUNNY   82  59  44 S12       30.10S HX  82
$$

ABBREVIATIONS USED IN REMARKS
   TC - TEMPERATURES IN CELSIUS
  WCI - WIND CHILL INDEX
   HX - HEAT INDEX
  VSB - VISIBILITY
$$



USA.gov is the U.S. government's official web portal to all federal, state and local government web resources and services.